VENTA 1 (42791 NORAD) Tracking and Keplerian Element Data

This shows tracking and keplerian element data for the satellite.

Feedback or suggestion? Click here.




ElementValue
Catalog42791
NameVENTA 1
Epoch Orbit5830
Epoch Day193.16819991
Epoch Year2018
RAAN252.6756
Inclination97.3993
Eccentricity0.0011197
Argument of Perigee358.5942
Mean Anonmoly1.526
Mean Motion15.22004722
Decay Rate9.77E-06
L11 42791U 17036AC 18193.16819991 .00000977 00000-0 45793-4 0 9991
L22 42791 097.3993 252.6756 0011197 358.5942 001.5260 15.22004722058308

Live tracking and technical data element details for VENTA 1 (NORAD 42791). VENTA 1 can be tracked NOW for your location showing map with azimuth and elevation plus other details from your city location.

Track the satellite on the map from your city or location and see movement details for azimuth, elevation, latitude, longitude, range, height, and movement on the map or in text.







IsCatalogInMostPopularTable: catalog: 42791, numindb: 82
Update: records affected: 1



GetName: 42791 VENTA 1

Hit Count: updated at: Thu, 19 Jul 2018 21:23:41 GMT